Time,TemperatureF,DewpointF,PressureIn,WindDirection,WindDirectionDegrees,WindSpeedMPH,WindSpeedGustMPH,Humidity,HourlyPrecipIn,Conditions,Clouds,dailyrainin,SoftwareType,DateUTC
2013-07-22 00:01:00,71.0,34.0,-100.00,SSE,167,2.0,3.0,26,0.00,,,0.00,,2013-07-22 06:01:00,
2013-07-22 00:11:00,71.0,34.0,-100.00,SSE,167,2.0,3.0,26,0.00,,,0.00,,2013-07-22 06:11:00,
2013-07-22 00:22:00,71.0,34.0,-100.00,SSE,167,2.0,3.0,26,0.00,,,0.00,,2013-07-22 06:22:00,
2013-07-22 00:43:00,68.0,33.0,-100.00,SSW,203,1.0,2.0,27,0.00,,,0.00,,2013-07-22 06:43:00,
2013-07-22 00:52:00,68.0,33.0,-100.00,SSW,203,1.0,2.0,27,0.00,,,0.00,,2013-07-22 06:52:00,
2013-07-22 01:01:00,67.0,33.0,-100.00,North,352,4.0,8.0,28,0.00,,,0.00,,2013-07-22 07:01:00,
2013-07-22 01:11:00,67.0,33.0,-100.00,North,352,4.0,8.0,28,0.00,,,0.00,,2013-07-22 07:11:00,
2013-07-22 01:22:00,67.0,33.0,-100.00,North,352,4.0,8.0,28,0.00,,,0.00,,2013-07-22 07:22:00,
2013-07-22 01:33:00,67.0,32.0,-100.00,NNW,347,6.0,13.0,27,0.00,,,0.00,,2013-07-22 07:33:00,
2013-07-22 01:43:00,67.0,32.0,-100.00,NNW,347,6.0,13.0,27,0.00,,,0.00,,2013-07-22 07:43:00,
2013-07-22 01:53:00,67.0,32.0,-100.00,NNW,347,6.0,13.0,27,0.00,,,0.00,,2013-07-22 07:53:00,
2013-07-22 02:01:00,63.0,33.0,-100.00,SW,216,1.0,2.0,32,0.00,,,0.00,,2013-07-22 08:01:00,
2013-07-22 02:11:00,63.0,33.0,-100.00,SW,216,1.0,2.0,32,0.00,,,0.00,,2013-07-22 08:11:00,
2013-07-22 02:22:00,63.0,33.0,-100.00,SW,216,1.0,2.0,32,0.00,,,0.00,,2013-07-22 08:22:00,
2013-07-22 02:32:00,63.0,34.0,-100.00,WSW,241,1.0,2.0,33,0.00,,,0.00,,2013-07-22 08:32:00,
2013-07-22 02:43:00,63.0,34.0,-100.00,WSW,241,1.0,2.0,33,0.00,,,0.00,,2013-07-22 08:43:00,
2013-07-22 02:52:00,63.0,34.0,-100.00,WSW,241,1.0,2.0,33,0.00,,,0.00,,2013-07-22 08:52:00,
2013-07-22 03:02:00,64.0,33.0,-100.00,ENE,78,2.0,4.0,31,0.00,,,0.00,,2013-07-22 09:02:00,
2013-07-22 03:11:00,64.0,33.0,-100.00,ENE,78,2.0,4.0,31,0.00,,,0.00,,2013-07-22 09:11:00,
2013-07-22 03:22:00,64.0,33.0,-100.00,ENE,78,2.0,4.0,31,0.00,,,0.00,,2013-07-22 09:22:00,
2013-07-22 03:33:00,63.0,34.0,-100.00,NNW,340,4.0,7.0,34,0.00,,,0.00,,2013-07-22 09:33:00,
2013-07-22 03:42:00,63.0,34.0,-100.00,NNW,340,4.0,7.0,34,0.00,,,0.00,,2013-07-22 09:42:00,
2013-07-22 04:01:00,63.0,33.0,-100.00,North,359,7.0,9.0,33,0.00,,,0.00,,2013-07-22 10:01:00,
2013-07-22 04:11:00,63.0,33.0,-100.00,North,359,7.0,9.0,33,0.00,,,0.00,,2013-07-22 10:11:00,
2013-07-22 04:32:00,62.0,33.0,-100.00,SE,144,3.0,6.0,33,0.00,,,0.00,,2013-07-22 10:32:00,
2013-07-22 04:43:00,62.0,33.0,-100.00,SE,144,3.0,6.0,33,0.00,,,0.00,,2013-07-22 10:43:00,
2013-07-22 04:53:00,62.0,33.0,-100.00,SE,144,3.0,6.0,33,0.00,,,0.00,,2013-07-22 10:53:00,
2013-07-22 05:01:00,61.0,34.0,-100.00,SE,127,2.0,5.0,36,0.00,,,0.00,,2013-07-22 11:01:00,
2013-07-22 05:11:00,61.0,34.0,-100.00,SE,127,2.0,5.0,36,0.00,,,0.00,,2013-07-22 11:11:00,
2013-07-22 05:22:00,61.0,34.0,-100.00,SE,127,2.0,5.0,36,0.00,,,0.00,,2013-07-22 11:22:00,
2013-07-22 05:32:00,58.0,33.0,-100.00,SE,136,3.0,8.0,39,0.00,,,0.00,,2013-07-22 11:32:00,
2013-07-22 05:43:00,58.0,33.0,-100.00,SE,136,3.0,8.0,39,0.00,,,0.00,,2013-07-22 11:43:00,
2013-07-22 05:52:00,58.0,33.0,-100.00,SE,136,3.0,8.0,39,0.00,,,0.00,,2013-07-22 11:52:00,
2013-07-22 06:02:00,60.0,33.0,-100.00,North,350,7.0,11.0,35,0.00,,,0.00,,2013-07-22 12:02:00,
2013-07-22 06:11:00,60.0,33.0,-100.00,North,350,7.0,11.0,35,0.00,,,0.00,,2013-07-22 12:11:00,
2013-07-22 06:22:00,60.0,33.0,-100.00,North,350,7.0,11.0,35,0.00,,,0.00,,2013-07-22 12:22:00,
2013-07-22 06:32:00,60.0,31.0,-100.00,NNW,347,5.0,8.0,33,0.00,,,0.00,,2013-07-22 12:32:00,
2013-07-22 06:43:00,60.0,31.0,-100.00,NNW,347,5.0,8.0,33,0.00,,,0.00,,2013-07-22 12:43:00,
2013-07-22 06:53:00,60.0,31.0,-100.00,NNW,347,5.0,8.0,33,0.00,,,0.00,,2013-07-22 12:53:00,
2013-07-22 07:01:00,59.0,32.0,-100.00,North,3,4.0,8.0,35,0.00,,,0.00,,2013-07-22 13:01:00,
2013-07-22 07:11:00,59.0,32.0,-100.00,North,3,4.0,8.0,35,0.00,,,0.00,,2013-07-22 13:11:00,
2013-07-22 07:21:00,59.0,32.0,-100.00,North,3,4.0,8.0,35,0.00,,,0.00,,2013-07-22 13:21:00,
2013-07-22 07:43:00,59.0,33.0,-100.00,West,264,2.0,4.0,37,0.00,,,0.00,,2013-07-22 13:43:00,
2013-07-22 07:53:00,59.0,33.0,-100.00,West,264,2.0,4.0,37,0.00,,,0.00,,2013-07-22 13:53:00,
2013-07-22 08:11:00,59.0,33.0,-100.00,NNW,332,4.0,9.0,38,0.00,,,0.00,,2013-07-22 14:11:00,
2013-07-22 08:32:00,61.0,32.0,-100.00,North,356,5.0,9.0,34,0.00,,,0.00,,2013-07-22 14:32:00,
2013-07-22 08:43:00,62.0,33.0,-100.00,North,360,5.0,10.0,34,0.00,,,0.00,,2013-07-22 14:43:00,
2013-07-22 08:53:00,62.0,33.0,-100.00,North,360,5.0,10.0,34,0.00,,,0.00,,2013-07-22 14:53:00,
2013-07-22 09:01:00,62.0,33.0,-100.00,North,360,5.0,10.0,34,0.00,,,0.00,,2013-07-22 15:01:00,
2013-07-22 09:11:00,62.0,33.0,-100.00,North,360,5.0,10.0,34,0.00,,,0.00,,2013-07-22 15:11:00,
2013-07-22 09:43:00,70.0,36.0,-100.00,NNE,16,3.0,5.0,29,0.00,,,0.00,,2013-07-22 15:43:00,
2013-07-22 09:52:00,70.0,36.0,-100.00,NNE,16,3.0,5.0,29,0.00,,,0.00,,2013-07-22 15:52:00,
2013-07-22 10:01:00,70.0,36.0,-100.00,NNE,16,3.0,5.0,29,0.00,,,0.00,,2013-07-22 16:01:00,
2013-07-22 10:21:00,77.0,39.0,-100.00,NNE,21,2.0,4.0,26,0.00,,,0.00,,2013-07-22 16:21:00,
2013-07-22 10:32:00,77.0,39.0,-100.00,NNE,21,2.0,4.0,26,0.00,,,0.00,,2013-07-22 16:32:00,
2013-07-22 10:52:00,79.0,41.0,-100.00,North,4,2.0,5.0,26,0.00,,,0.00,,2013-07-22 16:52:00,
2013-07-22 11:01:00,79.0,41.0,-100.00,North,4,2.0,5.0,26,0.00,,,0.00,,2013-07-22 17:01:00,
2013-07-22 11:23:00,81.0,36.0,-100.00,North,4,1.0,2.0,20,0.00,,,0.00,,2013-07-22 17:23:00,
2013-07-22 11:32:00,81.0,36.0,-100.00,North,4,1.0,2.0,20,0.00,,,0.00,,2013-07-22 17:32:00,
2013-07-22 11:52:00,85.0,34.0,-100.00,SSW,198,3.0,5.0,16,0.00,,,0.00,,2013-07-22 17:52:00,
2013-07-22 12:04:00,85.0,34.0,-100.00,SSW,198,3.0,5.0,16,0.00,,,0.00,,2013-07-22 18:04:00,
2013-07-22 12:32:00,87.0,33.0,-100.00,SSE,151,4.0,6.0,15,0.00,,,0.00,,2013-07-22 18:32:00,
2013-07-22 12:45:00,87.0,33.0,-100.00,SSE,165,4.0,8.0,15,0.00,,,0.00,,2013-07-22 18:45:00,
2013-07-22 12:57:00,87.0,33.0,-100.00,SSE,165,4.0,8.0,15,0.00,,,0.00,,2013-07-22 18:57:00,
2013-07-22 13:22:00,89.0,31.0,-100.00,SSE,158,6.0,9.0,13,0.00,,,0.00,,2013-07-22 19:22:00,
2013-07-22 13:43:00,90.0,27.0,-100.00,SSE,164,7.0,11.0,10,0.00,,,0.00,,2013-07-22 19:43:00,
2013-07-22 13:55:00,90.0,27.0,-100.00,SSE,164,7.0,11.0,10,0.00,,,0.00,,2013-07-22 19:55:00,
2013-07-22 14:03:00,90.0,27.0,-100.00,SSE,164,7.0,11.0,10,0.00,,,0.00,,2013-07-22 20:03:00,
2013-07-22 14:22:00,91.0,30.0,-100.00,South,179,4.0,6.0,11,0.00,,,0.00,,2013-07-22 20:22:00,
2013-07-22 14:32:00,91.0,30.0,-100.00,South,179,4.0,6.0,11,0.00,,,0.00,,2013-07-22 20:32:00,
2013-07-22 14:43:00,91.0,29.0,-100.00,SSE,160,7.0,10.0,11,0.00,,,0.00,,2013-07-22 20:43:00,
2013-07-22 14:52:00,91.0,29.0,-100.00,SSE,160,7.0,10.0,11,0.00,,,0.00,,2013-07-22 20:52:00,
2013-07-22 15:01:00,91.0,29.0,-100.00,SSE,160,7.0,10.0,11,0.00,,,0.00,,2013-07-22 21:01:00,
2013-07-22 15:22:00,92.0,31.0,-100.00,SSE,168,4.0,9.0,12,0.00,,,0.00,,2013-07-22 21:22:00,
2013-07-22 15:32:00,92.0,31.0,-100.00,SSE,168,4.0,9.0,12,0.00,,,0.00,,2013-07-22 21:32:00,
2013-07-22 15:43:00,93.0,28.0,-100.00,SSE,168,4.0,8.0,10,0.00,,,0.00,,2013-07-22 21:43:00,
2013-07-22 15:53:00,93.0,28.0,-100.00,SSE,168,4.0,8.0,10,0.00,,,0.00,,2013-07-22 21:53:00,
2013-07-22 16:01:00,93.0,28.0,-100.00,SSE,168,4.0,8.0,10,0.00,,,0.00,,2013-07-22 22:01:00,
2013-07-22 16:22:00,93.0,27.0,-100.00,South,171,8.0,12.0,10,0.00,,,0.00,,2013-07-22 22:22:00,
2013-07-22 16:32:00,93.0,27.0,-100.00,South,171,8.0,12.0,10,0.00,,,0.00,,2013-07-22 22:32:00,
2013-07-22 16:43:00,93.0,27.0,-100.00,South,171,8.0,12.0,10,0.00,,,0.00,,2013-07-22 22:43:00,
2013-07-22 17:11:00,92.0,31.0,-100.00,NW,322,3.0,6.0,11,0.00,,,0.00,,2013-07-22 23:11:00,
2013-07-22 17:22:00,92.0,31.0,-100.00,NW,322,3.0,6.0,11,0.00,,,0.00,,2013-07-22 23:22:00,
2013-07-22 17:43:00,91.0,30.0,-100.00,WNW,299,3.0,5.0,11,0.00,,,-99.99,,2013-07-22 23:43:00,
2013-07-22 17:52:00,91.0,30.0,-100.00,WNW,299,3.0,5.0,11,0.00,,,-99.99,,2013-07-22 23:52:00,
2013-07-22 18:01:00,92.0,32.0,-100.00,SSE,151,2.0,7.0,12,0.00,,,-99.99,,2013-07-23 00:01:00,
2013-07-22 18:11:00,92.0,32.0,-100.00,SSE,151,2.0,7.0,12,0.00,,,-99.99,,2013-07-23 00:11:00,
2013-07-22 18:22:00,92.0,32.0,-100.00,SSE,151,2.0,7.0,12,0.00,,,-99.99,,2013-07-23 00:22:00,
2013-07-22 18:43:00,92.0,28.0,-100.00,NNW,347,3.0,5.0,10,0.00,,,-99.99,,2013-07-23 00:43:00,
2013-07-22 18:52:00,92.0,28.0,-100.00,NNW,347,3.0,5.0,10,0.00,,,-99.99,,2013-07-23 00:52:00,
2013-07-22 19:01:00,92.0,28.0,-100.00,NNW,347,3.0,5.0,10,0.00,,,-99.99,,2013-07-23 01:01:00,
2013-07-22 19:11:00,92.0,28.0,-100.00,NNW,347,3.0,5.0,10,0.00,,,-99.99,,2013-07-23 01:11:00,
2013-07-22 19:43:00,90.0,30.0,-100.00,South,181,1.0,3.0,12,0.00,,,-99.99,,2013-07-23 01:43:00,
2013-07-22 19:53:00,90.0,30.0,-100.00,South,181,1.0,3.0,12,0.00,,,-99.99,,2013-07-23 01:53:00,
2013-07-22 20:01:00,91.0,32.0,-100.00,NW,313,1.0,2.0,12,0.00,,,-99.99,,2013-07-23 02:01:00,
2013-07-22 20:11:00,91.0,32.0,-100.00,NW,313,1.0,2.0,12,0.00,,,-99.99,,2013-07-23 02:11:00,
2013-07-22 20:22:00,91.0,32.0,-100.00,NW,313,1.0,2.0,12,0.00,,,-99.99,,2013-07-23 02:22:00,
2013-07-22 20:33:00,91.0,32.0,-100.00,NW,313,1.0,2.0,12,0.00,,,-99.99,,2013-07-23 02:33:00,
2013-07-22 20:43:00,90.0,30.0,-100.00,South,185,0.0,1.0,12,0.00,,,-99.99,,2013-07-23 02:43:00,
2013-07-22 20:53:00,90.0,30.0,-100.00,South,185,0.0,1.0,12,0.00,,,-99.99,,2013-07-23 02:53:00,
2013-07-22 21:01:00,90.0,30.0,-100.00,South,185,0.0,1.0,12,0.00,,,-99.99,,2013-07-23 03:01:00,
2013-07-22 21:11:00,86.0,38.0,-100.00,WNW,299,2.0,4.0,18,0.00,,,-99.99,,2013-07-23 03:11:00,
2013-07-22 21:22:00,86.0,38.0,-100.00,WNW,299,2.0,4.0,18,0.00,,,-99.99,,2013-07-23 03:22:00,
2013-07-22 21:43:00,80.0,39.0,-100.00,SSW,209,0.0,0.0,23,0.00,,,-99.99,,2013-07-23 03:43:00,
2013-07-22 21:52:00,80.0,39.0,-100.00,SSW,209,0.0,0.0,23,0.00,,,-99.99,,2013-07-23 03:52:00,
2013-07-22 22:53:00,73.0,38.0,-100.00,SSE,165,2.0,3.0,28,0.00,,,-99.99,,2013-07-23 04:53:00,
2013-07-22 23:02:00,73.0,38.0,-100.00,SSE,165,2.0,3.0,28,0.00,,,-99.99,,2013-07-23 05:02:00,